Regional Weather Roundup
Issued by NWS

Home | Current Version | Previous Version | Text Only | Print | Product List | Glossary Off
Versions: 1 2 3 4 5 6 7 8 9 10 11 12 13 14 15 16 17 18 19 20 21 22 23 24 25 26 27 28 29 30 31 32 33 34 35 36 37 38 39 40 41 42 43 44 45 46 47 48 49 50

000
ASUS45 KBOU 021010
RWRCO

WEATHER ROUNDUP FOR COLORADO
NATIONAL WEATHER SERVICE DENVER/BOULDER CO
400 AM MDT THU JUL 02 2015

NOTE: "FAIR" INDICATES FEW OR NO CLOUDS BELOW 12000 FEET WITH NO
SIGNIFICANT WEATHER AND/OR OBSTRUCTIONS TO VISIBILITY.

COZ001>005-013-030-031-021100-
...NORTHWEST COLORADO...

CITY           SKY/WX    TMP DP  RH WIND       PRES   REMARKS
CRAIG          PTCLDY    52  47  83 CALM      30.17S
HAYDEN         PTCLDY    59  46  63 E10       30.19S
MEEKER         CLOUDY    59  50  72 CALM      30.19S
MOUNT WERNER   NOT AVBL
STEAMBOAT SPGS PTCLDY    53  48  82 CALM      30.23S
WALDEN         MOCLDY    50  45  81 CALM      30.33R
$$

COZ006>008-011-021100-
...WEST CENTRAL VALLEYS...

CITY           SKY/WX    TMP DP  RH WIND       PRES   REMARKS
GRAND JUNCTION MOCLDY    71  50  47 CALM      30.03R
MONTROSE       CLOUDY    74  49  41 E9        30.13R
EAGLE          MOCLDY    57  48  72 SE5       30.24S
RIFLE          CLOUDY    65  49  56 E3        30.12S
DELTA          CLOUDY    72  53  52 E3        30.08S
NUCLA          CLOUDY    73  50  43 SW7G16    30.20R
$$

COZ017>023-064>068-021100-
...SOUTHWEST COLORADO...

CITY           SKY/WX    TMP DP  RH WIND       PRES   REMARKS
DURANGO        CLOUDY    63  54  72 CALM      30.27S
CORTEZ         MOCLDY    71  54  54 NE8       30.22R
PAGOSA SPRINGS LGT RAIN  58  51  77 CALM      30.36R
TELLURIDE      CLOUDY    64  45  49 E6        30.42S
WOLF CREEK PAS NOT AVBL
$$

COZ009-010-012-014-032>034-037-058>063-021100-
...CENTRAL COLORADO...

CITY           SKY/WX    TMP DP  RH WIND       PRES   REMARKS
ASPEN          MOCLDY    56  47  71 S6        30.29S
BUENA VISTA    MOCLDY    53  49  88 CALM      30.34R
COPPER MTN     MOCLDY    54  37  54 W14       30.63R
BERTHOUD PASS  FAIR      45  34  65 NW16G29   30.66R
COTTONWOOD PAS NOT AVBL
GUNNISON       CLOUDY    57  45  62 N8        30.35S
KREMMLING      PTCLDY    54  45  71 CALM      30.31R
LEADVILLE      MOCLDY    44  44 100 NE5       30.46S
MONARCH PASS   CLOUDY    46  41  81 SW20      30.72R
SALIDA         MOCLDY    60  53  78 CALM      30.39R
SUNLIGHT       MOCLDY    61  43  51 NW3       30.55S
WILKERSON PASS PTCLDY    50  43  76 NW7       30.59R
$$

COZ069>075-021100-
...SAN LUIS VALLEY/SANGRE DE CRISTO MOUNTAINS...

CITY           SKY/WX    TMP DP  RH WIND       PRES   REMARKS
ALAMOSA        CLOUDY    54  52  93 SE3       30.32S
LA VETA PASS   CLOUDY    46  43  87 MISG      30.45S
SAGUACHE       CLOUDY    54  50  87 NW6       30.35S
$$

COZ035-036-038>040-021100-
...NORTHERN COLORADO FRONT RANGE...

CITY           SKY/WX    TMP DP  RH WIND       PRES   REMARKS
DENVER INTL AP PTCLDY    63  55  75 SW5       30.09S
DMNS CITY PARK   N/A     63  55  76 NE2       30.10S
AURORA         PTCLDY    61  55  80 S6        30.11S
FRONT RANGE AP CLEAR     64  57  77 S5        30.10S
ERIE MUNI ARPT CLEAR     58  56  93 W3        30.09R
BOULDER MUN AP CLEAR     61  55  82 CALM      30.11R
CENTENNIAL     PTCLDY    60  55  83 SE5       30.12R
BROOMFIELD     CLEAR     61  55  82 NW5       30.12R
FORT COLLINS   CLEAR     63  57  82 N10       30.15R
LONGMONT       CLEAR     64  58  82 N6        30.12R
$$

COZ041-046-047-076>085-087-088-021100-
...PIKES PEAK/PALMER DIVIDE AND SOUTHERN FOOTHILLS...

CITY           SKY/WX    TMP DP  RH WIND       PRES   REMARKS
COLO. SPRINGS  MOCLDY    61  56  83 E6        30.19S
A. F. ACADEMY  PTCLDY    56  56  99 CALM      30.20S
ELLICOTT       PTCLDY     1  32 100 S3        30.17F
FALCON         PTCLDY    56  54  94 CALM      30.24R
FORT CARSON    PTCLDY    57  57 100 NW6       30.16R
LIMON          CLEAR     61  56  83 CALM      30.14R
MONUMENT HILL  PTCLDY    55  52  88 MISG      30.22S
TRINIDAD       MOCLDY    61  57  87 W8        30.16F
$$

COZ042>045-048>051-090-091-021100-
...NORTHEAST COLORADO...

CITY           SKY/WX    TMP DP  RH WIND       PRES   REMARKS
GREELEY ARPT   PTCLDY    61  57  88 N15       30.13R
AKRON          CLEAR     59  56  89 N7        30.10S
BURLINGTON     PTCLDY    64  59  83 NW6       30.08R
WRAY           MOCLDY    64  58  80 N10       30.09R
STERLING       CLOUDY    61  54  77 NE22G30     N/A
HOLYOKE        RAIN      63  55  77 N33G47    30.15R
FORT MORGAN    CLEAR     60  56  86 N10       30.10R
$$

COZ086-089-092>099-021100-
...SOUTHEAST COLORADO...

CITY           SKY/WX    TMP DP  RH WIND       PRES   REMARKS
PUEBLO         MOCLDY    63  60  90 CALM      30.10S
LA JUNTA       MOCLDY    65  63  93 W8        30.06F
LAMAR          CLOUDY    68  65  90 W5        30.03R
SPRINGFIELD      N/A     65  63  93 W12       30.05F
$$


USA.gov is the U.S. government's official web portal to all federal, state and local government web resources and services.